Location: Bakorobougou
(12.6133°N, 7.8831°W)
Time: 15:18:31
(UTC+00:00)

Daily predictions for brighter satellites

Satellite Brightness Start Highest point End
(mag) Time Altitude Azimuth Time Altitude Azimuth Time Altitude Azimuth
SKYMED 2 3.6 18:19:42 10° NNE 18:24:02 89° ESE 18:28:23 10° SSW
NOSS 2-3 (C) 4.2 18:20:59 10° SW 18:25:15 57° WNW 18:29:26 10° NNE
CZ-4 R/B 2.9 18:23:46 10° ESE 18:26:36 18° ENE 18:29:23 10° NNE
NOAA 12 4.2 18:24:33 10° SSE 18:29:42 53° ENE 18:34:51 10° N
GPS 2-15 Rocket1 4.0 18:25:58 10° WNW 18:30:34 41° N 18:35:14 10° ENE
Cosmos 2233 Rocket 4.1 18:25:29 10° N 18:31:47 87° W 18:38:01 10° S
Cosmos 923 Rocket 4.2 18:28:42 10° SSW 18:33:58 80° WNW 18:39:11 10° N
SMAP 3.6 18:30:25 10° S 18:35:00 64° WSW 18:39:36 10° NNW
Starlink Launch 2 Placeholder 3.6 18:33:16 10° N 18:35:16 22° NE 18:37:16 10° ESE
BREEZE M DEB (TANK) 4.3 18:31:14 10° NNW 18:35:58 64° ENE 18:56:00 10° SE
Cosmos 1805 Rocket 3.9 18:32:18 10° NNE 18:36:26 43° E 18:40:36 10° SSE
Skynet4D Del rocket 3.6 18:34:26 10° WNW 18:40:17 67° NNE 18:45:38 10° ESE
Cosmos 1606 4.4 18:42:57 10° SE 18:45:03 14° E 18:45:12 14° E
Ariane H10 3.5 18:38:50 10° WSW 18:47:53 44° S 18:50:59 12° ESE
ADEOS Rocket 4.3 18:48:19 14° E 18:49:49 16° E 18:53:07 10° SE
CZ-3C R/B 2.0 18:46:26 10° WNW 18:50:28 23° N 18:52:11 15° NE
Cosmos 1464 Rocket 4.2 18:46:20 10° NNE 18:52:06 44° E 18:57:53 10° SSE
SL-16 R/B 3.7 18:51:10 10° SE 18:54:19 15° ESE 18:54:46 15° E
CSL-04 Rocket 4.1 18:53:56 10° SE 18:58:55 37° ENE 19:03:50 10° N
GPS 2-14 Rocket1 4.5 18:56:34 10° W 18:59:48 26° SSW 19:03:06 10° SE
FengYun 1-2 T 4.2 18:54:31 10° SSE 19:00:01 63° ENE 19:05:28 10° N
Cosmos 1072 Rocket 4.5 18:54:15 10° N 19:00:19 61° E 19:06:28 10° SSE
Cosmos 2219 3.3 18:55:56 10° N 19:01:20 50° ENE 19:06:46 10° SSE
Cosmos 1933 3.9 18:58:12 10° SSE 19:01:57 36° E 19:04:03 21° NE
Cosmos 1515 Rocket 3.7 18:58:49 10° SSE 19:03:07 50° E 19:07:22 10° NNE
Cosmos 1980 Rocket 2.2 18:57:52 10° SSW 19:03:29 84° WNW 19:09:08 10° NNE
YAOGAN 6 2.4 19:01:02 10° SSE 19:04:34 76° E 19:08:04 10° N
Cosmos 2322 Rocket 3.7 19:02:32 10° SE 19:05:19 16° ESE 19:05:19 16° ESE
Cosmos 1328 Rocket 3.7 19:01:31 10° S 19:05:58 76° W 19:10:22 10° N
Cosmos 1633 2.6 19:02:39 10° N 19:06:10 49° E 19:09:40 10° SSE
Hubble Space Telescope 0.9 19:02:09 10° SW 19:06:13 62° SSE 19:07:59 31° E
Cosmos 1633 Rocket 3.5 19:03:17 10° NNE 19:07:24 38° E 19:11:31 10° SSE
Cosmos 1151 Rocket 3.5 19:10:38 10° SSW 19:14:53 62° W 19:19:10 10° N
CZ-3C R/B 1.5 19:12:50 10° WSW 19:15:20 75° SSE 19:18:11 29° ENE
Envisat 3.7 19:11:07 10° S 19:16:04 55° W 19:21:01 10° NNW
Cosmos 1666 Rocket 3.4 19:12:43 10° N 19:17:02 71° E 19:21:19 10° S
DELTA 2 R/B (1) 4.1 19:14:27 10° WSW 19:19:54 53° NW 19:23:03 24° NNE
Sich 1 3.5 19:18:52 10° NNW 19:23:10 61° W 19:27:30 10° S
Cosmos 2227 Rocket 2.4 19:18:23 10° N 19:23:45 45° ENE 19:29:06 10° SE
COSMOS 2455 4.2 19:19:21 10° SSE 19:22:37 20° ESE 19:22:37 20° ESE
YAOGAN 1 2.4 19:19:37 10° SSE 19:23:56 82° ENE 19:28:15 10° N
Cosmos 2297 Rocket 2.3 19:18:45 10° N 19:24:12 51° ENE 19:29:40 10° SSE
Cosmos 1607 4.4 19:19:50 10° N 19:25:22 35° ENE 19:25:22 35° ENE
Palapa 6 Rocket 4.1 19:24:37 10° SW 19:28:17 30° SSE 19:28:46 29° SE
SL-24 R/B 4.3 19:29:09 20° N 19:32:08 77° WNW 19:36:57 10° SSW
Mugunghwa Rocket 4.5 19:26:36 10° WSW 19:35:13 82° SSE 19:38:28 41° ENE
SeaSat 1 3.2 19:31:30 10° S 19:36:16 53° WSW 19:41:04 10° NW
Cosmos 1862 3.6 19:32:56 10° N 19:36:53 67° W 19:40:51 10° S
GPS 2-17 Rocket1 2.8 19:33:29 10° WNW 19:38:00 86° SSW 19:38:19 76° ESE
BREEZE-M DEB (TANK) 4.2 19:38:51 10° SW 19:42:50 88° SE 19:50:39 25° NE
ISS -0.9 19:43:30 10° S 19:43:36 11° S 19:43:36 11° S
Cosmos 2034 Rocket 4.1 19:41:14 10° N 19:47:35 78° W 19:53:56 10° S
Aurora 2 Rocket 3.3 19:52:27 10° W 19:57:16 60° NNW 19:57:24 60° N
Cosmos 2228 Rocket 4.1 19:54:52 10° SSW 19:59:03 44° W 19:59:51 39° NW
CZ-4 R/B 4.1 19:58:19 10° SW 20:01:20 19° W 20:04:22 10° NW
ATLAS 5 CENTAUR R/B 3.5 20:03:59 10° NNW 20:07:34 35° N 20:07:34 35° N
ATLAS 2AS CENTAUR R/B 4.2 20:10:01 10° S 20:13:16 25° SSE 20:13:16 25° SSE
ADEOS Rocket 4.1 20:35:16 36° WNW 20:35:19 36° WNW 20:40:24 10° SW
SL-16 R/B 3.6 20:32:48 10° SW 20:36:43 34° WSW 20:36:43 34° WSW
Cosmos 2322 Rocket 4.1 20:44:33 10° SW 20:47:12 24° WSW 20:47:12 24° WSW
